| time (UTC) | temp F | wind direction | speed knots | gust knots | rain 1hr in | rain 24hr in | rain mn in | humidity % | barometer mb |
| 20260905160058 | 94 | 212 | 0.9 | 3.5 | 0.00 | 0.00 | 0.00 | 56 | 1013.3 |
| 20260905154557 | 92 | 203 | 0.9 | 3.5 | 0.00 | 0.00 | 0.00 | 60 | 1013.5 |
| 20260905153051 | 91 | 126 | 0.9 | 3.5 | 0.00 | 0.00 | 0.00 | 61 | 1013.5 |
| 20260905151602 | 90 | 188 | 1.7 | 3.5 | 0.00 | 0.00 | 0.00 | 66 | 1013.5 |
| 20260905150055 | 91 | 219 | 0.9 | 1.7 | 0.00 | 0.00 | 0.00 | 68 | 1013.6 |
| 20260905144555 | 89 | 140 | 0.0 | 1.7 | 0.00 | 0.00 | 0.00 | 70 | 1013.6 |
| 20260905143050 | 87 | 156 | 0.9 | 3.5 | 0.00 | 0.00 | 0.00 | 73 | 1013.6 |
| 20260905141550 | 86 | 244 | 0.0 | 1.7 | 0.00 | 0.00 | 0.00 | 72 | 1013.7 |
| 20260905140059 | 86 | 152 | 0.0 | 1.7 | 0.00 | 0.00 | 0.00 | 74 | 1013.7 |
| 20260905134557 | 86 | 0 | 0.0 | 0.9 | 0.00 | 0.00 | 0.00 | 74 | 1013.9 |
| 20260905133051 | 84 | 0 | 0.0 | 0.9 | 0.00 | 0.00 | 0.00 | 78 | 1013.9 |
| 20260905131556 | 82 | 0 | 0.0 | 0.9 | 0.00 | 0.00 | 0.00 | 85 | 1014.1 |
| 20260905130057 | 78 | 0 | 0.0 | 0.9 | 0.00 | 0.00 | 0.00 | 89 | 1014.1 |
| 20260905124551 | 75 | 0 | 0.0 | 0.0 | 0.00 | 0.00 | 0.00 | 94 | 1014.3 |
| 20260905123106 | 74 | 0 | 0.0 | 0.0 | 0.00 | 0.00 | 0.00 | 94 | 1014.1 |
| 20260905121554 | 73 | 0 | 0.0 | 0.0 | 0.00 | 0.00 | 0.00 | 94 | 1014.1 |
| 20260905114608 | 72 | 0 | 0.0 | 0.0 | 0.00 | 0.00 | 0.00 | 94 | 1014.0 |
| 20260905113051 | 72 | 0 | 0.0 | 0.0 | 0.00 | 0.00 | 0.00 | 94 | 1013.6 |
| 20260905111605 | 72 | 0 | 0.0 | 0.0 | 0.00 | 0.00 | 0.00 | 94 | 1013.3 |
| 20260905104558 | 72 | 0 | 0.0 | 0.0 | 0.00 | 0.00 | 0.00 | 93 | 1012.9 |
| 20260905103101 | 72 | 0 | 0.0 | 0.0 | 0.00 | 0.00 | 0.00 | 93 | 1012.8 |
| 20260905101552 | 72 | 0 | 0.0 | 0.0 | 0.00 | 0.00 | 0.00 | 93 | 1012.9 |
| 20260905100105 | 73 | 0 | 0.0 | 0.0 | 0.00 | 0.00 | 0.00 | 93 | 1012.6 |
| 20260905094605 | 73 | 0 | 0.0 | 0.0 | 0.00 | 0.00 | 0.00 | 93 | 1012.7 |
| 20260905093102 | 73 | 0 | 0.0 | 0.9 | 0.00 | 0.00 | 0.00 | 93 | 1012.8 |
| 20260905091600 | 73 | 0 | 0.0 | 0.0 | 0.00 | 0.00 | 0.00 | 92 | 1012.9 |
| 20260905090057 | 73 | 0 | 0.0 | 0.0 | 0.00 | 0.00 | 0.00 | 92 | 1012.9 |
| 20260905084555 | 74 | 0 | 0.0 | 0.0 | 0.00 | 0.00 | 0.00 | 92 | 1012.9 |
| 20260905083049 | 74 | 0 | 0.0 | 0.0 | 0.00 | 0.00 | 0.00 | 91 | 1013.1 |
| 20260905081611 | 75 | 0 | 0.0 | 0.9 | 0.00 | 0.00 | 0.00 | 91 | 1013.2 |
| 20260905080057 | 75 | 0 | 0.0 | 0.0 | 0.00 | 0.00 | 0.00 | 91 | 1013.2 |
| 20260905074603 | 75 | 0 | 0.0 | 0.9 | 0.00 | 0.00 | 0.00 | 91 | 1013.3 |
| 20260905073100 | 75 | 0 | 0.0 | 0.9 | 0.00 | 0.00 | 0.00 | 91 | 1013.2 |
| 20260905071601 | 75 | 0 | 0.0 | 0.0 | 0.00 | 0.00 | 0.00 | 91 | 1013.4 |
| 20260905070055 | 75 | 0 | 0.0 | 0.0 | 0.00 | 0.00 | 0.00 | 91 | 1013.5 |
| 20260905064557 | 76 | 0 | 0.0 | 0.0 | 0.00 | 0.00 | 0.00 | 91 | 1013.8 |
| 20260905063105 | 76 | 0 | 0.0 | 0.0 | 0.00 | 0.00 | 0.00 | 91 | 1014.1 |
| 20260905061609 | 76 | 0 | 0.0 | 0.0 | 0.00 | 0.00 | 0.00 | 92 | 1014.3 |
| 20260905060053 | 76 | 0 | 0.0 | 0.0 | 0.00 | 0.00 | 0.00 | 92 | 1014.5 |
| 20260905054559 | 76 | 0 | 0.0 | 0.0 | 0.00 | 0.00 | 0.00 | 91 | 1014.6 |
| 20260905053057 | 76 | 0 | 0.0 | 0.0 | 0.00 | 0.00 | 0.00 | 91 | 1014.7 |
| 20260905051556 | 76 | 0 | 0.0 | 0.0 | 0.00 | 0.00 | 0.00 | 91 | 1014.9 |
| 20260905050053 | 76 | 0 | 0.0 | 0.0 | 0.00 | 0.00 | 0.00 | 90 | 1014.9 |
| 20260905044600 | 76 | 0 | 0.0 | 0.0 | 0.00 | 0.00 | 0.00 | 90 | 1015.0 |
| 20260905043115 | 77 | 0 | 0.0 | 0.0 | 0.00 | 0.00 | 0.00 | 90 | 1015.0 |
| 20260905041555 | 77 | 0 | 0.0 | 0.0 | 0.00 | 0.00 | 0.00 | 89 | 1015.0 |
| 20260905040115 | 77 | 0 | 0.0 | 0.0 | 0.00 | 0.00 | 0.00 | 89 | 1014.7 |
| 20260905034558 | 78 | 0 | 0.0 | 0.0 | 0.00 | 0.00 | 0.00 | 88 | 1014.7 |
| 20260905033102 | 78 | 0 | 0.0 | 0.0 | 0.00 | 0.00 | 0.00 | 87 | 1014.7 |
| 20260905031600 | 79 | 0 | 0.0 | 0.0 | 0.00 | 0.00 | 0.00 | 86 | 1014.6 |
| 20260905030055 | 79 | 0 | 0.0 | 0.0 | 0.00 | 0.00 | 0.00 | 85 | 1014.5 |
| 20260905024551 | 79 | 0 | 0.0 | 0.0 | 0.00 | 0.00 | 0.00 | 85 | 1014.7 |
| 20260905023058 | 80 | 0 | 0.0 | 0.0 | 0.00 | 0.00 | 0.00 | 85 | 1014.7 |
| 20260905021552 | 81 | 0 | 0.0 | 0.0 | 0.00 | 0.00 | 0.00 | 83 | 1014.7 |
| 20260905020055 | 81 | 0 | 0.0 | 0.0 | 0.00 | 0.00 | 0.00 | 81 | 1014.6 |
| 20260905014557 | 82 | 0 | 0.0 | 0.0 | 0.00 | 0.00 | 0.00 | 79 | 1014.7 |
| 20260905013101 | 82 | 0 | 0.0 | 0.0 | 0.00 | 0.00 | 0.00 | 78 | 1014.4 |
| 20260905011553 | 83 | 0 | 0.0 | 0.9 | 0.00 | 0.00 | 0.00 | 78 | 1014.5 |
| 20260905010054 | 83 | 0 | 0.0 | 0.0 | 0.00 | 0.00 | 0.00 | 83 | 1014.5 |
| 20260905004600 | 83 | 0 | 0.0 | 0.0 | 0.00 | 0.00 | 0.00 | 82 | 1014.4 |
| 20260905003051 | 84 | 0 | 0.0 | 0.9 | 0.00 | 0.00 | 0.00 | 81 | 1014.4 |
| 20260905001554 | 85 | 0 | 0.0 | 0.0 | 0.00 | 0.00 | 0.00 | 79 | 1014.6 |
| 20260904234556 | 88 | 0 | 0.0 | 0.0 | 0.00 | 0.00 | 0.00 | 73 | 1014.3 |
| 20260904233053 | 90 | 0 | 0.0 | 0.0 | 0.00 | 0.00 | 0.00 | 69 | 1014.2 |
| 20260904231600 | 93 | 0 | 0.0 | 0.0 | 0.00 | 0.00 | 0.00 | 64 | 1013.9 |
| 20260904230056 | 93 | 0 | 0.0 | 0.9 | 0.00 | 0.00 | 0.00 | 58 | 1013.9 |
| 20260904224601 | 94 | 0 | 0.0 | 0.9 | 0.00 | 0.00 | 0.00 | 55 | 1013.8 |
| 20260904223059 | 95 | 217 | 0.0 | 2.6 | 0.00 | 0.00 | 0.00 | 54 | 1013.7 |
| 20260904221555 | 96 | 200 | 0.9 | 3.5 | 0.00 | 0.00 | 0.00 | 52 | 1013.7 |
| 20260904220112 | 96 | 213 | 0.0 | 4.3 | 0.00 | 0.00 | 0.00 | 52 | 1014.0 |
| 20260904214552 | 97 | 236 | 0.9 | 4.3 | 0.00 | 0.00 | 0.00 | 51 | 1014.1 |
| 20260904213055 | 97 | 246 | 1.7 | 4.3 | 0.00 | 0.00 | 0.00 | 51 | 1013.9 |
| 20260904211608 | 97 | 150 | 0.9 | 5.2 | 0.00 | 0.00 | 0.00 | 52 | 1014.0 |
| 20260904210053 | 97 | 226 | 1.7 | 4.3 | 0.00 | 0.00 | 0.00 | 50 | 1013.7 |
| 20260904204555 | 97 | 242 | 1.7 | 4.3 | 0.00 | 0.00 | 0.00 | 52 | 1014.1 |
| 20260904203055 | 97 | 163 | 0.9 | 4.3 | 0.00 | 0.00 | 0.00 | 51 | 1014.2 |
| 20260904201551 | 96 | 252 | 2.6 | 7.8 | 0.00 | 0.00 | 0.00 | 50 | 1014.2 |
| 20260904200100 | 97 | 0 | 1.7 | 6.1 | 0.00 | 0.00 | 0.00 | 51 | 1014.4 |
| 20260904194603 | 98 | 204 | 0.9 | 2.6 | 0.00 | 0.00 | 0.00 | 49 | 1014.7 |
| 20260904193110 | 98 | 196 | 1.7 | 6.1 | 0.00 | 0.00 | 0.00 | 48 | 1015.1 |
| 20260904191554 | 98 | 0 | 1.7 | 4.3 | 0.00 | 0.00 | 0.00 | 48 | 1015.4 |
| 20260904190059 | 97 | 155 | 1.7 | 3.5 | 0.00 | 0.00 | 0.00 | 49 | 1015.6 |
| 20260904184559 | 99 | 205 | 0.0 | 1.7 | 0.00 | 0.00 | 0.00 | 49 | 1015.7 |
| 20260904183108 | 98 | 0 | 0.0 | 2.6 | 0.00 | 0.00 | 0.00 | 51 | 1015.9 |
| 20260904181602 | 96 | 138 | 0.9 | 3.5 | 0.00 | 0.00 | 0.00 | 53 | 1016.0 |
| 20260904180123 | 95 | 153 | 1.7 | 3.5 | 0.00 | 0.00 | 0.00 | 55 | 1016.2 |
| 20260904174605 | 96 | 152 | 0.9 | 3.5 | 0.00 | 0.00 | 0.00 | 53 | 1016.5 |
| 20260904173059 | 96 | 0 | 0.0 | 3.5 | 0.00 | 0.00 | 0.00 | 52 | 1016.6 |
| 20260904171556 | 94 | 202 | 0.0 | 4.3 | 0.00 | 0.00 | 0.00 | 56 | 1016.7 |
| 20260904170058 | 94 | 151 | 0.9 | 4.3 | 0.00 | 0.00 | 0.00 | 58 | 1016.8 |
| 20260904164603 | 94 | 14 | 0.0 | 4.3 | 0.00 | 0.00 | 0.00 | 61 | 1016.8 |
| 20260904163059 | 93 | 341 | 0.0 | 3.5 | 0.00 | 0.00 | 0.00 | 61 | 1017.1 |
| 20260904161610 | 93 | 222 | 0.0 | 1.7 | 0.00 | 0.00 | 0.00 | 61 | 1017.3 |